QPF
0.00 0.00 0.00 0.00 0.00 0.01 0.00 0.01 0.01 0.01 0.00 0.01 0.01 0.01 0.01 0.01 0.01 0.01 0.01 0.02 0.02 0.01 0.01 0.01 0.01 0.01 0.01 0.01 0.01 0.01 0.01 0.01 0.01 0.00 0.00 0.00 0.00 0.00 0.00 0.00 0.00 0.00 0.00 0.01
0.00 0.00 0.00 0.00 0.00 0.00 0.00 0.00 0.02 0.01 0.00 0.01 0.00 0.00 0.01 0.01 0.01 0.01 0.01 0.01 0.03 0.03 0.01 0.01 0.01 0.01 0.01 0.00 0.00 0.01 0.01 0.01 0.01 0.01 0.00 0.00 0.00 0.00 0.01 0.01 0.01 0.00 0.00 0.01
0.01 0.00 0.01 0.01 0.00 0.00 0.00 0.00 0.02 0.01 0.00 0.00 0.01 0.00 0.00 0.00 0.01 0.01 0.01 0.01 0.02 0.05 0.02 0.01 0.01 0.01 0.01 0.01 0.00 0.00 0.01 0.01 0.01 0.01 0.01 0.01 0.01 0.01 0.01 0.01 0.02 0.02 0.01 0.01
0.02 0.01 0.02 0.01 0.00 0.00 0.00 0.00 0.01 0.01 0.00 0.00 0.00 0.00 0.00 0.00 0.00 0.00 0.01 0.01 0.01 0.04 0.04 0.02 0.01 0.01 0.01 0.00 0.00 0.00 0.00 0.00 0.00 0.01 0.01 0.01 0.02 0.01 0.01 0.01 0.02 0.02 0.02 0.02
0.02 0.02 0.02 0.01 0.00 0.00 0.00 0.00 0.01 0.00 0.00 0.00 0.00 0.00 0.00 0.00 0.00 0.00 0.00 0.01 0.01 0.01 0.02 0.03 0.02 0.01 0.01 0.01 0.00 0.00 0.00 0.00 0.00 0.01 0.01 0.01 0.02 0.03 0.02 0.02 0.02 0.02 0.02 0.02
0.02 0.02 0.03 0.01 0.00 0.00 0.01 0.01 0.01 0.00 0.00 0.00 0.00 0.00 0.00 0.00 0.00 0.00 0.00 0.00 0.01 0.01 0.01 0.01 0.02 0.02 0.01 0.01 0.01 0.01 0.00 0.00 0.00 0.01 0.01 0.01 0.02 0.02 0.02 0.02 0.02 0.03 0.03 0.03
0.02 0.02 0.03 0.01 0.00 0.00 0.01 0.02 0.01 0.01 0.00 0.00 0.00 0.00 0.00 0.00 0.00 0.00 0.00 0.00 0.00 0.01 0.01 0.01 0.01 0.01 0.02 0.01 0.01 0.00 0.00 0.00 0.00 0.01 0.01 0.01 0.01 0.02 0.02 0.02 0.02 0.03 0.03 0.03
0.02 0.02 0.02 0.01 0.00 0.01 0.01 0.01 0.01 0.01 0.00 0.00 0.00 0.00 0.00 0.00 0.00 0.00 0.00 0.00 0.00 0.01 0.01 0.01 0.01 0.02 0.02 0.02 0.01 0.01 0.00 0.00 0.00 0.00 0.01 0.01 0.01 0.02 0.02 0.02 0.03 0.03 0.03 0.03
0.02 0.02 0.02 0.01 0.00 0.00 0.01 0.01 0.01 0.01 0.01 0.00 0.00 0.00 0.00 0.00 0.00 0.00 0.00 0.00 0.00 0.01 0.01 0.01 0.01 0.02 0.02 0.02 0.01 0.01 0.00 0.00 0.00 0.00 0.00 0.01 0.01 0.01 0.02 0.02 0.03 0.03 0.04 0.04
0.02 0.01 0.01 0.01 0.00 0.00 0.01 0.01 0.01 0.01 0.01 0.00 0.00 0.00 0.00 0.00 0.00 0.00 0.00 0.00 0.00 0.01 0.01 0.01 0.01 0.02 0.02 0.01 0.01 0.01 0.00 0.00 0.00 0.00 0.01 0.01 0.01 0.01 0.01 0.02 0.03 0.03 0.04 0.04
0.02 0.01 0.00 0.00 0.00 0.01 0.00 0.01 0.01 0.01 0.01 0.01 0.00 0.00 0.00 0.00 0.00 0.00 0.00 0.00 0.00 0.01 0.01 0.01 0.01 0.02 0.02 0.01 0.01 0.01 0.00 0.00 0.00 0.00 0.00 0.01 0.01 0.01 0.01 0.01 0.02 0.03 0.03 0.04
0.02 0.01 0.00 0.00 0.00 0.00 0.00 0.00 0.00 0.00 0.00 0.00 0.00 0.00 0.00 0.00 0.00 0.00 0.01 0.00 0.00 0.01 0.01 0.01 0.01 0.01 0.01 0.01 0.01 0.01 0.00 0.00 0.00 0.00 0.01 0.01 0.01 0.01 0.01 0.01 0.01 0.02 0.02 0.03
0.01 0.00 0.00 0.00 0.00 0.00 0.00 0.00 0.00 0.00 0.00 0.00 0.00 0.00 0.00 0.00 0.00 0.00 0.01 0.01 0.01 0.00 0.00 0.00 0.00 0.01 0.00 0.01 0.01 0.01 0.00 0.00 0.00 0.00 0.01 0.01 0.01 0.01 0.01 0.01 0.01 0.02 0.02 0.02
0.00 0.00 0.00 0.00 0.00 0.00 0.00 0.00 0.00 0.00 0.00 0.00 0.00 0.00 0.00 0.00 0.00 0.00 0.01 0.01 0.01 0.00 0.00 0.00 0.00 0.00 0.00 0.00 0.00 0.00 0.01 0.01 0.00 0.00 0.00 0.01 0.01 0.01 0.01 0.02 0.02 0.02 0.02 0.02
0.00 0.00 0.00 0.00 0.00 0.00 0.00 0.00 0.00 0.00 0.00 0.00 0.00 0.00 0.00 0.01 0.01 0.01 0.01 0.01 0.00 0.00 0.00 0.00 0.00 0.00 0.00 0.00 0.00 0.00 0.00 0.01 0.01 0.01 0.01 0.00 0.00 0.00 0.01 0.01 0.01 0.02 0.02 0.02
0.00 0.00 0.00 0.00 0.00 0.00 0.00 0.00 0.00 0.00 0.00 0.00 0.01 0.01 0.01 0.01 0.01 0.01 0.01 0.01 0.00 0.00 0.00 0.00 0.00 0.00 0.00 0.00 0.00 0.01 0.01 0.01 0.01 0.00 0.00 0.00 0.00 0.01 0.01 0.02 0.02 0.02 0.02 0.02
0.00 0.00 0.00 0.01 0.01 0.01 0.01 0.01 0.00 0.00 0.00 0.00 0.01 0.01 0.01 0.01 0.01 0.01 0.01 0.01 0.00 0.00 0.00 0.01 0.01 0.00 0.00 0.00 0.00 0.01 0.01 0.01 0.01 0.01 0.01 0.01 0.01 0.01 0.01 0.02 0.02 0.02 0.02 0.02
0.01 0.01 0.01 0.01 0.01 0.01 0.01 0.01 0.01 0.00 0.00 0.01 0.01 0.01 0.01 0.01 0.01 0.01 0.01 0.01 0.01 0.01 0.00 0.00 0.00 0.00 0.00 0.00 0.00 0.01 0.01 0.01 0.01 0.01 0.01 0.01 0.01 0.02 0.02 0.02 0.02 0.02 0.02 0.01
0.01 0.01 0.01 0.01 0.02 0.01 0.01 0.01 0.01 0.01 0.01 0.01 0.02 0.02 0.02 0.01 0.01 0.01 0.01 0.01 0.01 0.01 0.00 0.00 0.00 0.00 0.00 0.00 0.00 0.01 0.01 0.01 0.01 0.01 0.01 0.01 0.01 0.02 0.02 0.02 0.02 0.02 0.02 0.01
0.01 0.01 0.01 0.02 0.02 0.03 0.03 0.03 0.02 0.02 0.03 0.03 0.03 0.03 0.03 0.02 0.02 0.01 0.01 0.01 0.00 0.00 0.00 0.00 0.00 0.00 0.00 0.00 0.01 0.01 0.01 0.01 0.01 0.01 0.01 0.01 0.02 0.02 0.02 0.02 0.02 0.01 0.01 0.01
0.01 0.01 0.02 0.02 0.03 0.03 0.04 0.04 0.05 0.05 0.05 0.04 0.04 0.03 0.02 0.02 0.01 0.01 0.00 0.00 0.00 0.00 0.00 0.00 0.00 0.00 0.00 0.01 0.01 0.01 0.01 0.01 0.01 0.01 0.01 0.02 0.02 0.02 0.02 0.02 0.01 0.01 0.01 0.01
0.02 0.02 0.02 0.02 0.02 0.03 0.03 0.04 0.04 0.04 0.04 0.03 0.02 0.01 0.01 0.01 0.00 0.00 0.00 0.00 0.00 0.00 0.00 0.00 0.00 0.00 0.01 0.01 0.01 0.01 0.00 0.01 0.01 0.01 0.02 0.02 0.02 0.02 0.02 0.01 0.01 0.01 0.01 0.01
0.01 0.02 0.02 0.02 0.02 0.02 0.02 0.03 0.03 0.02 0.02 0.01 0.01 0.00 0.00 0.00 0.00 0.01 0.00 0.00 0.00 0.00 0.00 0.00 0.00 0.00 0.01 0.01 0.01 0.00 0.00 0.01 0.01 0.02 0.02 0.02 0.02 0.01 0.01 0.01 0.01 0.01 0.01 0.01
0.01 0.01 0.01 0.01 0.02 0.02 0.03 0.03 0.02 0.01 0.01 0.01 0.01 0.00 0.00 0.00 0.00 0.00 0.00 0.00 0.00 0.00 0.00 0.00 0.00 0.01 0.01 0.01 0.01 0.01 0.01 0.01 0.02 0.02 0.02 0.02 0.01 0.01 0.01 0.01 0.01 0.01 0.01 0.01
0.01 0.01 0.01 0.01 0.02 0.02 0.02 0.01 0.01 0.01 0.00 0.00 0.00 0.00 0.00 0.00 0.00 0.00 0.00 0.00 0.00 0.00 0.00 0.00 0.00 0.00 0.01 0.01 0.01 0.01 0.02 0.02 0.03 0.02 0.02 0.02 0.02 0.01 0.01 0.01 0.01 0.01 0.01 0.01
0.01 0.01 0.01 0.01 0.01 0.01 0.01 0.01 0.01 0.01 0.01 0.01 0.01 0.01 0.01 0.01 0.01 0.01 0.01 0.01 0.01 0.01 0.01 0.01 0.01 0.01 0.01 0.01 0.02 0.02 0.03 0.03 0.03 0.03 0.02 0.02 0.02 0.01 0.01 0.01 0.01 0.01 0.01 0.02
0.00 0.00 0.01 0.01 0.01 0.01 0.01 0.01 0.01 0.01 0.01 0.01 0.01 0.01 0.01 0.01 0.01 0.01 0.01 0.01 0.02 0.02 0.02 0.03 0.03 0.03 0.03 0.03 0.03 0.03 0.03 0.03 0.03 0.03 0.02 0.02 0.02 0.01 0.01 0.01 0.01 0.02 0.02 0.02
MSLP
1021.38 1021.62 1021.88 1022.21 1022.63 1023.15 1023.77 1024.47 1025.21 1025.97 1026.68 1027.30 1027.80 1028.17 1028.39 1028.47 1028.45 1028.35 1028.20 1028.03 1027.85 1027.69 1027.55 1027.42 1027.30 1027.18 1027.05 1026.91 1026.75 1026.58 1026.39 1026.19 1025.97 1025.74 1025.48 1025.19 1024.87 1024.53 1024.16 1023.76 1023.36 1022.95 1022.56 1022.18
1021.86 1022.20 1022.58 1022.99 1023.45 1023.96 1024.52 1025.12 1025.73 1026.32 1026.86 1027.33 1027.71 1027.98 1028.16 1028.25 1028.27 1028.23 1028.16 1028.07 1027.97 1027.87 1027.76 1027.65 1027.52 1027.39 1027.24 1027.08 1026.92 1026.74 1026.55 1026.36 1026.15 1025.92 1025.66 1025.37 1025.04 1024.67 1024.27 1023.84 1023.39 1022.95 1022.51 1022.10
1022.35 1022.77 1023.20 1023.66 1024.12 1024.60 1025.09 1025.57 1026.04 1026.47 1026.86 1027.20 1027.47 1027.69 1027.85 1027.96 1028.04 1028.09 1028.11 1028.11 1028.09 1028.05 1027.98 1027.88 1027.76 1027.62 1027.45 1027.28 1027.09 1026.91 1026.72 1026.52 1026.31 1026.08 1025.82 1025.51 1025.16 1024.76 1024.32 1023.84 1023.35 1022.86 1022.39 1021.94
1022.78 1023.24 1023.71 1024.17 1024.61 1025.04 1025.44 1025.81 1026.15 1026.45 1026.72 1026.95 1027.16 1027.35 1027.52 1027.68 1027.83 1027.97 1028.09 1028.18 1028.24 1028.25 1028.22 1028.14 1028.02 1027.86 1027.68 1027.48 1027.28 1027.07 1026.88 1026.67 1026.45 1026.21 1025.93 1025.60 1025.21 1024.77 1024.29 1023.77 1023.24 1022.71 1022.19 1021.71
1023.10 1023.57 1024.04 1024.48 1024.89 1025.25 1025.58 1025.86 1026.10 1026.31 1026.49 1026.67 1026.85 1027.04 1027.25 1027.47 1027.70 1027.92 1028.13 1028.30 1028.42 1028.48 1028.47 1028.40 1028.27 1028.09 1027.89 1027.67 1027.44 1027.22 1027.01 1026.79 1026.55 1026.28 1025.97 1025.61 1025.19 1024.71 1024.18 1023.63 1023.06 1022.49 1021.95 1021.45
1023.27 1023.73 1024.17 1024.59 1024.96 1025.28 1025.54 1025.76 1025.94 1026.10 1026.25 1026.41 1026.60 1026.82 1027.08 1027.37 1027.67 1027.97 1028.25 1028.47 1028.63 1028.72 1028.72 1028.64 1028.49 1028.29 1028.06 1027.82 1027.57 1027.33 1027.09 1026.85 1026.59 1026.30 1025.96 1025.56 1025.10 1024.58 1024.02 1023.44 1022.85 1022.27 1021.72 1021.21
1023.27 1023.71 1024.13 1024.52 1024.86 1025.15 1025.39 1025.58 1025.74 1025.89 1026.04 1026.23 1026.45 1026.72 1027.04 1027.39 1027.75 1028.10 1028.42 1028.68 1028.86 1028.95 1028.94 1028.84 1028.67 1028.45 1028.19 1027.93 1027.66 1027.40 1027.14 1026.88 1026.59 1026.27 1025.90 1025.47 1024.98 1024.44 1023.85 1023.25 1022.66 1022.08 1021.54 1021.04
1023.15 1023.56 1023.95 1024.31 1024.64 1024.92 1025.15 1025.35 1025.53 1025.70 1025.90 1026.12 1026.40 1026.73 1027.10 1027.50 1027.91 1028.29 1028.63 1028.90 1029.07 1029.15 1029.11 1028.99 1028.80 1028.56 1028.28 1027.99 1027.71 1027.44 1027.16 1026.88 1026.57 1026.23 1025.83 1025.38 1024.87 1024.31 1023.73 1023.13 1022.54 1021.98 1021.47 1020.99
1022.93 1023.30 1023.67 1024.02 1024.34 1024.63 1024.88 1025.11 1025.33 1025.56 1025.81 1026.09 1026.43 1026.81 1027.23 1027.66 1028.09 1028.49 1028.84 1029.09 1029.25 1029.30 1029.24 1029.10 1028.88 1028.62 1028.34 1028.04 1027.75 1027.47 1027.19 1026.89 1026.58 1026.22 1025.81 1025.35 1024.83 1024.27 1023.69 1023.11 1022.55 1022.02 1021.52 1021.08
1022.66 1023.00 1023.34 1023.68 1024.01 1024.31 1024.60 1024.87 1025.15 1025.43 1025.74 1026.09 1026.48 1026.90 1027.36 1027.81 1028.26 1028.66 1028.99 1029.22 1029.36 1029.39 1029.31 1029.16 1028.93 1028.67 1028.38 1028.09 1027.81 1027.53 1027.25 1026.95 1026.64 1026.27 1025.86 1025.40 1024.89 1024.35 1023.79 1023.23 1022.69 1022.19 1021.72 1021.29
1022.37 1022.67 1022.99 1023.33 1023.66 1023.99 1024.32 1024.64 1024.97 1025.31 1025.68 1026.07 1026.50 1026.96 1027.43 1027.90 1028.34 1028.73 1029.05 1029.27 1029.39 1029.40 1029.32 1029.17 1028.95 1028.70 1028.43 1028.16 1027.89 1027.62 1027.36 1027.07 1026.76 1026.41 1026.01 1025.56 1025.07 1024.55 1024.01 1023.48 1022.96 1022.48 1022.03 1021.59
1022.08 1022.35 1022.65 1022.98 1023.33 1023.68 1024.04 1024.40 1024.77 1025.16 1025.56 1025.99 1026.45 1026.92 1027.40 1027.87 1028.31 1028.69 1028.99 1029.21 1029.32 1029.34 1029.28 1029.13 1028.94 1028.72 1028.47 1028.23 1027.99 1027.75 1027.50 1027.24 1026.95 1026.61 1026.23 1025.81 1025.34 1024.84 1024.34 1023.83 1023.33 1022.86 1022.40 1021.96
1021.79 1022.03 1022.33 1022.66 1023.01 1023.39 1023.77 1024.16 1024.55 1024.96 1025.40 1025.84 1026.31 1026.78 1027.26 1027.72 1028.15 1028.52 1028.83 1029.04 1029.17 1029.21 1029.16 1029.05 1028.90 1028.71 1028.50 1028.29 1028.08 1027.87 1027.65 1027.42 1027.15 1026.84 1026.49 1026.09 1025.66 1025.19 1024.71 1024.23 1023.75 1023.27 1022.80 1022.33
1021.50 1021.74 1022.03 1022.36 1022.73 1023.11 1023.51 1023.91 1024.32 1024.74 1025.18 1025.62 1026.08 1026.55 1027.02 1027.47 1027.89 1028.26 1028.56 1028.79 1028.94 1029.00 1028.99 1028.92 1028.80 1028.66 1028.49 1028.32 1028.14 1027.96 1027.77 1027.56 1027.32 1027.05 1026.73 1026.37 1025.97 1025.55 1025.10 1024.63 1024.16 1023.69 1023.20 1022.70
1021.22 1021.46 1021.76 1022.11 1022.48 1022.88 1023.28 1023.68 1024.09 1024.51 1024.93 1025.36 1025.80 1026.25 1026.70 1027.13 1027.55 1027.92 1028.23 1028.48 1028.65 1028.75 1028.77 1028.74 1028.66 1028.55 1028.42 1028.28 1028.13 1027.98 1027.81 1027.63 1027.43 1027.19 1026.91 1026.60 1026.24 1025.85 1025.44 1025.00 1024.55 1024.08 1023.58 1023.06
1020.93 1021.20 1021.52 1021.88 1022.28 1022.68 1023.08 1023.48 1023.88 1024.27 1024.67 1025.07 1025.49 1025.91 1026.34 1026.76 1027.17 1027.54 1027.87 1028.13 1028.32 1028.45 1028.51 1028.51 1028.47 1028.39 1028.28 1028.17 1028.04 1027.91 1027.77 1027.62 1027.45 1027.25 1027.02 1026.75 1026.44 1026.11 1025.73 1025.33 1024.90 1024.44 1023.95 1023.43
1020.65 1020.94 1021.30 1021.69 1022.09 1022.50 1022.90 1023.29 1023.66 1024.03 1024.40 1024.78 1025.16 1025.56 1025.97 1026.38 1026.78 1027.15 1027.48 1027.77 1027.98 1028.14 1028.22 1028.25 1028.23 1028.18 1028.09 1027.99 1027.89 1027.78 1027.66 1027.54 1027.40 1027.24 1027.06 1026.84 1026.59 1026.30 1025.98 1025.62 1025.22 1024.79 1024.32 1023.82
1020.35 1020.69 1021.08 1021.49 1021.91 1022.32 1022.71 1023.08 1023.43 1023.77 1024.11 1024.46 1024.82 1025.19 1025.59 1025.98 1026.38 1026.76 1027.10 1027.40 1027.64 1027.81 1027.92 1027.97 1027.97 1027.93 1027.87 1027.78 1027.69 1027.59 1027.50 1027.40 1027.30 1027.18 1027.04 1026.88 1026.69 1026.46 1026.19 1025.88 1025.53 1025.14 1024.71 1024.24
1020.03 1020.41 1020.83 1021.26 1021.68 1022.09 1022.47 1022.81 1023.14 1023.45 1023.76 1024.08 1024.42 1024.78 1025.16 1025.55 1025.95 1026.34 1026.69 1027.01 1027.27 1027.47 1027.60 1027.67 1027.69 1027.67 1027.62 1027.55 1027.47 1027.39 1027.32 1027.25 1027.17 1027.10 1027.01 1026.90 1026.76 1026.59 1026.38 1026.13 1025.84 1025.50 1025.11 1024.68
1019.68 1020.08 1020.52 1020.95 1021.37 1021.76 1022.11 1022.43 1022.73 1023.01 1023.30 1023.59 1023.92 1024.27 1024.65 1025.05 1025.46 1025.86 1026.24 1026.57 1026.86 1027.08 1027.24 1027.34 1027.39 1027.38 1027.35 1027.30 1027.24 1027.19 1027.13 1027.09 1027.05 1027.01 1026.96 1026.90 1026.82 1026.71 1026.56 1026.36 1026.12 1025.84 1025.50 1025.11
1019.29 1019.69 1020.12 1020.53 1020.93 1021.28 1021.60 1021.89 1022.16 1022.42 1022.68 1022.96 1023.28 1023.63 1024.02 1024.43 1024.86 1025.28 1025.69 1026.06 1026.37 1026.63 1026.82 1026.95 1027.03 1027.06 1027.05 1027.03 1027.00 1026.96 1026.94 1026.92 1026.91 1026.90 1026.90 1026.88 1026.84 1026.78 1026.68 1026.54 1026.35 1026.12 1025.83 1025.49
1018.84 1019.23 1019.62 1020.00 1020.35 1020.66 1020.94 1021.19 1021.42 1021.65 1021.90 1022.18 1022.49 1022.85 1023.25 1023.68 1024.13 1024.59 1025.02 1025.42 1025.77 1026.07 1026.30 1026.47 1026.59 1026.66 1026.69 1026.70 1026.70 1026.70 1026.70 1026.71 1026.72 1026.75 1026.77 1026.78 1026.78 1026.76 1026.71 1026.62 1026.48 1026.29 1026.06 1025.76
1018.35 1018.70 1019.04 1019.36 1019.65 1019.90 1020.13 1020.33 1020.53 1020.74 1020.98 1021.25 1021.57 1021.94 1022.36 1022.81 1023.28 1023.76 1024.22 1024.66 1025.05 1025.38 1025.65 1025.87 1026.03 1026.14 1026.22 1026.27 1026.31 1026.34 1026.37 1026.41 1026.45 1026.49 1026.54 1026.58 1026.61 1026.62 1026.60 1026.55 1026.46 1026.32 1026.13 1025.88
1017.84 1018.12 1018.39 1018.64 1018.86 1019.06 1019.23 1019.39 1019.55 1019.74 1019.97 1020.24 1020.56 1020.95 1021.37 1021.84 1022.33 1022.83 1023.32 1023.77 1024.19 1024.56 1024.87 1025.13 1025.34 1025.50 1025.62 1025.71 1025.79 1025.86 1025.92 1025.98 1026.04 1026.10 1026.16 1026.22 1026.27 1026.30 1026.31 1026.30 1026.25 1026.16 1026.02 1025.82
1017.31 1017.53 1017.73 1017.90 1018.05 1018.18 1018.30 1018.42 1018.56 1018.73 1018.95 1019.22 1019.55 1019.93 1020.36 1020.84 1021.33 1021.83 1022.33 1022.80 1023.23 1023.62 1023.96 1024.26 1024.50 1024.71 1024.87 1025.01 1025.13 1025.23 1025.32 1025.40 1025.48 1025.56 1025.63 1025.69 1025.76 1025.80 1025.84 1025.86 1025.85 1025.81 1025.72 1025.59
1016.80 1016.95 1017.07 1017.18 1017.26 1017.34 1017.41 1017.50 1017.62 1017.78 1017.99 1018.26 1018.58 1018.96 1019.39 1019.85 1020.33 1020.82 1021.31 1021.77 1022.20 1022.60 1022.96 1023.28 1023.55 1023.79 1023.99 1024.17 1024.32 1024.45 1024.57 1024.68 1024.77 1024.85 1024.93 1025.01 1025.08 1025.14 1025.20 1025.24 1025.27 1025.28 1025.25 1025.18
1016.31 1016.39 1016.45 1016.50 1016.53 1016.57 1016.62 1016.69 1016.79 1016.95 1017.15 1017.41 1017.72 1018.09 1018.49 1018.93 1019.38 1019.84 1020.29 1020.73 1021.15 1021.54 1021.89 1022.22 1022.51 1022.78 1023.01 1023.22 1023.40 1023.56 1023.71 1023.83 1023.94 1024.03 1024.11 1024.19 1024.27 1024.34 1024.42 1024.49 1024.55 1024.60 1024.63 1024.63
Thickness
5687 5691 5690 5685 5684 5685 5682 5680 5672 5674 5674 5678 5679 5679 5678 5675 5672 5667 5663 5659 5655 5651 5647 5644 5641 5637 5633 5630 5627 5624 5621 5617 5615 5612 5610 5607 5605 5603 5602 5600 5599 5598 5596 5595
5680 5687 5685 5680 5682 5681 5679 5679 5676 5675 5671 5681 5681 5678 5673 5669 5665 5660 5655 5653 5650 5646 5642 5638 5635 5631 5627 5624 5621 5618 5614 5611 5608 5606 5603 5600 5597 5596 5594 5593 5592 5591 5590 5588
5669 5678 5675 5667 5677 5678 5675 5677 5673 5664 5668 5675 5670 5668 5665 5663 5659 5654 5650 5647 5643 5639 5636 5632 5629 5626 5621 5618 5616 5612 5608 5604 5601 5598 5595 5593 5591 5589 5586 5585 5584 5583 5582 5581
5665 5665 5650 5666 5685 5681 5674 5672 5672 5669 5668 5667 5664 5663 5662 5659 5653 5648 5645 5641 5637 5633 5629 5627 5624 5620 5617 5613 5608 5604 5601 5597 5594 5590 5588 5586 5584 5581 5580 5578 5577 5575 5574 5574
5657 5651 5655 5665 5673 5672 5664 5659 5667 5664 5662 5661 5660 5656 5651 5652 5649 5644 5640 5636 5632 5628 5624 5620 5616 5613 5609 5604 5600 5597 5593 5589 5586 5583 5580 5578 5575 5573 5572 5571 5569 5568 5567 5566
5651 5643 5642 5655 5668 5673 5663 5648 5658 5658 5654 5652 5649 5636 5636 5642 5641 5637 5634 5630 5625 5621 5617 5612 5608 5605 5600 5596 5592 5588 5585 5582 5579 5577 5574 5571 5569 5567 5566 5564 5563 5562 5561 5559
5642 5639 5645 5655 5663 5662 5637 5636 5649 5650 5647 5644 5638 5633 5634 5635 5632 5629 5625 5622 5618 5613 5608 5603 5600 5596 5591 5587 5583 5581 5578 5575 5572 5570 5567 5565 5562 5560 5558 5557 5555 5554 5553 5553
5639 5633 5634 5651 5650 5641 5638 5645 5644 5643 5640 5637 5633 5632 5629 5626 5622 5619 5615 5612 5609 5604 5599 5596 5592 5588 5582 5578 5576 5573 5570 5567 5564 5562 5560 5558 5554 5552 5551 5549 5547 5545 5545 5544
5639 5635 5643 5647 5643 5643 5642 5638 5636 5634 5633 5630 5626 5622 5619 5616 5613 5610 5607 5603 5599 5594 5590 5587 5583 5579 5574 5571 5569 5565 5562 5559 5556 5554 5551 5549 5546 5544 5542 5540 5538 5537 5536 5535
5637 5637 5639 5640 5639 5638 5636 5632 5630 5628 5625 5622 5617 5614 5610 5608 5604 5601 5597 5593 5589 5585 5581 5577 5574 5570 5566 5563 5560 5557 5554 5551 5548 5546 5543 5541 5538 5536 5533 5531 5528 5528 5527 5526
5628 5630 5631 5630 5629 5628 5627 5625 5622 5619 5617 5613 5610 5606 5603 5599 5596 5592 5588 5584 5580 5576 5571 5568 5565 5561 5558 5555 5552 5549 5545 5543 5540 5537 5534 5532 5529 5526 5524 5522 5520 5518 5517 5516
5618 5623 5620 5619 5621 5620 5617 5614 5613 5610 5607 5606 5602 5598 5595 5591 5587 5583 5579 5575 5571 5567 5563 5559 5556 5552 5550 5547 5544 5540 5537 5534 5531 5528 5526 5523 5520 5517 5515 5514 5513 5511 5510 5509
5621 5621 5618 5617 5615 5613 5609 5607 5606 5603 5600 5597 5595 5591 5587 5583 5579 5575 5571 5567 5563 5559 5555 5551 5548 5545 5542 5539 5536 5533 5529 5526 5523 5521 5518 5516 5513 5509 5507 5505 5504 5502 5501 5500
5616 5612 5608 5607 5605 5605 5603 5601 5599 5596 5593 5590 5586 5583 5579 5575 5571 5567 5563 5559 5556 5552 5548 5544 5540 5537 5534 5532 5528 5525 5522 5519 5516 5513 5510 5508 5505 5503 5501 5498 5496 5494 5492 5491
5607 5605 5601 5600 5598 5596 5594 5592 5589 5586 5583 5580 5578 5574 5570 5565 5561 5558 5555 5552 5548 5544 5540 5537 5533 5530 5527 5524 5521 5518 5515 5512 5509 5506 5503 5501 5498 5496 5494 5491 5489 5487 5485 5483
5598 5596 5593 5590 5588 5586 5584 5582 5579 5577 5574 5571 5567 5564 5561 5557 5553 5549 5546 5543 5538 5534 5532 5529 5526 5523 5520 5517 5514 5511 5508 5506 5503 5499 5496 5493 5490 5487 5485 5483 5481 5479 5477 5475
5588 5585 5583 5581 5579 5577 5576 5574 5571 5569 5565 5561 5558 5555 5551 5548 5544 5540 5537 5534 5531 5528 5525 5522 5519 5516 5513 5510 5506 5503 5500 5498 5496 5492 5488 5485 5482 5479 5477 5475 5472 5471 5469 5468
5585 5581 5578 5575 5572 5570 5568 5566 5563 5560 5556 5553 5550 5546 5542 5538 5534 5531 5528 5526 5524 5521 5518 5515 5511 5508 5505 5502 5499 5495 5493 5490 5487 5484 5481 5478 5475 5472 5469 5467 5465 5463 5461 5460
5578 5574 5571 5569 5566 5563 5560 5557 5554 5550 5547 5544 5540 5536 5533 5530 5526 5523 5521 5518 5515 5512 5510 5507 5504 5500 5497 5494 5491 5487 5485 5482 5480 5477 5474 5471 5467 5465 5462 5460 5458 5456 5454 5452
5568 5566 5563 5561 5558 5555 5551 5548 5544 5541 5538 5535 5531 5528 5524 5522 5519 5516 5513 5511 5508 5505 5503 5500 5496 5492 5489 5486 5483 5479 5477 5474 5471 5469 5466 5463 5460 5458 5455 5453 5451 5449 5448 5446
5559 5557 5554 5551 5549 5546 5543 5539 5536 5532 5529 5526 5522 5519 5517 5514 5512 5509 5506 5503 5501 5499 5495 5492 5488 5485 5482 5478 5475 5472 5469 5466 5463 5460 5458 5455 5452 5450 5448 5446 5444 5442 5441 5439
5551 5548 5546 5543 5540 5537 5534 5531 5528 5525 5521 5518 5516 5513 5510 5508 5505 5502 5500 5496 5494 5491 5487 5483 5480 5477 5474 5471 5467 5464 5461 5458 5455 5452 5450 5447 5445 5443 5441 5439 5437 5435 5434 5432
5544 5541 5538 5535 5532 5529 5526 5523 5520 5517 5514 5511 5509 5507 5504 5501 5498 5494 5491 5489 5486 5483 5479 5476 5473 5470 5466 5462 5459 5456 5453 5450 5447 5445 5443 5440 5438 5436 5434 5432 5430 5428 5426 5425
5536 5533 5531 5528 5524 5521 5517 5514 5512 5509 5506 5504 5502 5499 5496 5493 5490 5487 5484 5481 5478 5474 5471 5468 5465 5462 5458 5454 5451 5448 5446 5443 5440 5437 5435 5433 5431 5429 5427 5425 5423 5421 5420 5418
5529 5526 5522 5519 5515 5511 5509 5506 5504 5501 5499 5496 5494 5492 5489 5486 5482 5478 5475 5472 5469 5465 5462 5459 5457 5454 5450 5447 5444 5441 5438 5435 5432 5429 5427 5425 5423 5421 5419 5417 5415 5414 5412 5411
5520 5517 5514 5511 5508 5504 5501 5499 5496 5493 5490 5487 5485 5483 5480 5477 5473 5470 5466 5463 5460 5457 5453 5450 5448 5445 5442 5439 5436 5433 5430 5427 5424 5422 5420 5418 5416 5413 5411 5409 5408 5406 5405 5404
5511 5508 5505 5502 5500 5497 5494 5491 5488 5485 5482 5479 5476 5473 5471 5468 5464 5460 5457 5454 5451 5448 5445 5441 5438 5436 5433 5430 5428 5425 5423 5420 5417 5414 5412 5410 5408 5406 5403 5402 5400 5399 5398 5396